Dewpoint
59 60 60 60 59 59 59 58 58 58 59 60 59 59 58 57 55 46 40 43 46 61 57 40 39 32 30 27 28 24 20 19 17 16 16 19 18 21 22 23 27 36 37 55 60
59 60 60 60 59 59 59 58 57 58 59 59 59 58 57 56 49 44 46 62 61 61 39 37 33 32 27 26 27 25 22 20 20 19 19 18 19 19 20 21 23 31 37 55 59
59 60 59 59 59 59 58 58 57 58 59 59 58 58 56 55 46 38 57 59 58 55 41 39 34 32 29 26 25 25 22 22 22 22 21 20 20 21 21 21 22 22 32 51 56
59 59 59 59 59 59 58 57 57 58 58 58 58 58 56 51 37 38 57 58 59 45 39 37 34 32 30 27 26 24 24 23 22 23 23 22 23 24 24 23 24 25 29 46 52
58 58 58 59 59 58 58 57 57 57 58 58 58 57 51 44 40 40 55 55 42 38 36 34 33 32 30 29 27 26 26 26 25 25 24 25 25 25 25 26 28 28 29 31 33
59 58 59 59 59 58 57 57 56 57 57 57 58 56 48 42 41 41 40 38 36 35 35 34 34 34 31 30 29 29 28 28 28 26 26 26 26 26 25 27 28 30 32 32 34
59 58 58 58 58 58 57 56 56 56 57 57 56 49 46 44 42 40 41 37 35 34 35 35 35 34 34 33 32 31 29 27 26 26 26 26 25 23 25 30 30 27 30 36 36
59 58 58 58 57 57 56 55 55 56 57 56 55 49 46 42 41 40 39 36 35 35 35 35 35 35 34 34 32 29 28 26 24 25 25 24 22 23 25 26 26 26 28 31 34
58 58 58 57 57 56 55 55 55 56 57 54 51 51 44 47 39 38 38 35 35 36 36 35 36 35 34 32 30 30 25 23 20 25 24 25 23 24 27 26 27 28 29 29 33
58 58 58 57 57 56 55 55 55 56 53 48 47 44 45 39 41 40 39 38 37 37 36 36 35 34 32 30 25 25 23 22 19 21 25 24 23 25 25 23 26 28 34 29 31
57 58 58 57 57 56 55 55 48 47 47 45 43 42 41 42 39 36 38 39 38 36 34 34 32 29 29 28 26 23 19 18 19 19 21 23 24 23 24 25 25 25 27 28 29
57 57 57 57 57 56 55 53 48 48 45 46 45 44 39 35 30 30 29 29 31 30 32 32 31 30 25 22 22 23 22 22 23 23 23 22 21 23 23 22 23 24 26 29 30
57 57 57 57 57 55 56 54 49 49 45 43 41 38 30 32 30 28 28 28 29 29 29 30 28 25 23 22 23 23 23 23 21 23 22 22 21 22 20 21 24 26 30 31 33
56 56 56 56 53 53 53 51 51 52 43 37 34 30 31 32 30 29 30 29 25 25 25 26 25 25 23 24 24 23 23 22 20 22 20 21 18 21 21 20 23 28 34 35 37
55 55 55 55 56 53 50 52 52 53 35 35 32 33 30 31 27 28 29 28 25 25 26 26 26 24 25 26 26 23 21 21 20 21 23 20 18 19 20 18 22 31 34 38 40
55 55 54 54 54 55 54 52 54 44 35 36 33 30 30 28 26 26 27 28 27 25 27 26 26 26 24 24 23 23 21 22 25 24 23 21 19 18 16 18 22 32 36 39 41
55 55 55 55 52 57 55 53 45 39 38 34 35 31 28 27 26 23 26 27 27 28 29 29 28 28 25 24 26 24 24 23 23 26 23 21 19 20 20 19 28 34 36 39 42
54 54 55 57 57 57 54 48 37 40 38 35 30 32 30 30 29 27 26 27 30 30 28 26 27 27 27 26 23 24 24 25 20 22 22 22 20 19 22 23 29 32 36 36 36
53 55 58 58 58 59 52 41 39 41 41 39 38 32 30 30 29 31 32 32 33 33 31 29 28 27 25 24 23 23 23 25 25 25 23 20 21 22 26 28 28 28 34 35 34
53 53 54 60 55 54 47 42 42 41 41 40 37 37 34 33 34 36 32 32 32 32 33 31 30 29 29 25 23 23 23 22 24 21 20 19 20 21 26 26 31 32 34 35 34
53 49 55 57 56 50 43 41 43 42 42 41 40 39 38 35 35 37 35 35 35 33 31 28 29 28 29 29 27 24 23 23 22 23 22 21 22 31 27 28 30 33 36 36 36
50 44 56 56 47 47 45 43 42 41 42 42 42 41 40 39 38 37 38 39 38 37 31 36 34 31 31 33 31 30 28 26 25 23 25 25 27 29 32 31 32 31 31 34 32
46 46 52 54 43 43 45 43 43 42 42 42 41 41 41 40 39 42 41 41 39 39 39 39 37 32 28 29 29 27 27 24 25 25 23 25 27 29 27 29 29 32 31 28 27
44 36 43 46 47 45 43 42 42 44 42 42 42 41 41 41 42 41 40 41 40 42 44 40 38 33 31 31 32 33 32 30 28 26 24 25 27 27 29 31 30 31 29 26 26
45 39 42 36 42 43 44 43 42 41 43 41 40 40 39 38 38 38 41 40 40 41 42 40 35 35 34 33 32 31 30 29 30 29 26 25 24 25 28 30 31 30 28 21 23
39 40 43 43 43 43 42 43 42 43 41 40 40 39 40 40 40 38 39 39 38 39 37 39 34 34 33 33 32 31 31 30 29 29 28 29 28 31 29 28 28 27 20 21 24
44 47 44 41 42 41 41 42 43 43 43 42 41 41 39 41 43 44 44 43 41 39 37 37 35 34 31 30 30 30 31 30 29 30 28 27 30 32 29 28 24 21 24 24 30
Lifted_Index
8 8 8 8 8 8 8 8 8 7 6 6 6 7 7 7 6 6 5 6 7 8 7 6 5 6 6 6 5 5 4 2 1 1 2 3 4 4 4 4 3 3 1 -2 -3
8 8 8 8 8 8 8 8 7 6 5 6 6 7 7 6 6 5 6 6 7 7 7 6 5 5 5 5 5 4 4 3 2 2 3 4 4 4 4 4 4 3 2 -1 -2
8 8 8 8 8 8 8 7 6 5 5 6 6 6 6 6 5 5 6 6 7 7 7 6 5 5 5 5 4 4 4 3 3 4 4 4 5 5 4 4 4 4 3 0 -1
8 8 8 8 8 7 7 6 5 5 5 5 6 6 6 5 4 5 6 6 7 7 6 6 5 5 4 4 4 4 4 4 4 4 5 5 5 5 4 4 4 4 4 2 1
8 8 8 7 7 7 6 5 5 5 5 5 5 5 5 4 4 5 6 6 6 6 6 5 5 5 4 4 4 4 4 4 4 4 5 5 5 5 5 5 5 5 4 4 3
8 7 7 7 7 6 5 5 4 5 5 5 5 5 5 4 4 5 6 6 6 6 6 5 5 5 4 4 4 4 4 4 4 4 5 5 5 5 5 5 5 5 5 4 4
7 7 7 7 7 6 5 4 4 4 4 5 5 5 4 4 5 5 5 6 6 6 6 6 6 5 5 4 4 4 4 4 4 4 5 4 4 5 5 5 5 5 5 4 4
7 7 7 7 7 6 5 4 4 4 4 4 4 4 4 4 5 5 5 6 6 6 6 6 6 5 5 4 4 4 3 3 3 4 5 5 4 4 5 5 5 5 4 4 4
7 7 7 7 7 6 5 4 3 3 3 3 4 3 3 4 4 5 5 5 5 6 6 6 6 5 5 4 3 3 3 2 3 4 5 5 4 4 4 5 5 5 4 4 4
7 7 7 7 7 6 5 3 3 2 2 2 3 3 3 3 4 5 5 5 5 5 5 5 5 4 4 4 3 3 3 3 3 4 5 5 5 5 4 5 5 4 4 4 4
6 6 7 7 7 6 4 2 2 2 2 2 3 3 3 4 5 5 6 5 5 5 5 5 4 4 4 4 4 4 4 4 4 4 4 5 5 5 5 5 5 4 4 5 5
6 6 6 7 7 6 3 2 2 3 3 3 3 3 4 6 6 6 7 6 5 5 5 4 4 4 4 4 4 4 4 4 4 4 4 5 5 4 4 5 5 5 5 5 5
5 6 6 7 6 5 3 2 2 3 3 3 3 4 6 7 7 7 7 6 6 5 5 4 4 4 3 3 3 3 3 4 4 4 4 4 4 4 4 5 5 6 6 5 5
5 5 6 6 5 3 2 2 2 3 3 3 3 5 7 7 7 7 7 6 6 5 5 4 4 3 3 3 3 3 4 4 4 4 4 4 4 4 4 4 6 6 6 5 5
4 4 5 5 4 2 2 2 2 2 2 3 3 5 6 6 7 7 7 6 5 4 4 3 3 3 3 3 4 4 4 4 4 4 4 3 3 3 3 3 5 6 6 5 5
4 4 4 4 3 2 2 3 2 2 2 2 3 3 4 5 5 6 6 5 4 3 3 2 3 3 3 3 4 4 4 4 4 3 3 3 3 2 2 2 3 4 5 5 4
3 3 3 3 3 3 3 3 3 3 3 3 2 3 3 4 4 4 4 3 3 2 2 2 2 2 3 3 4 4 4 3 2 2 2 2 2 2 2 2 3 3 4 4 4
3 3 3 3 3 2 3 3 3 4 4 3 3 3 3 3 3 3 3 2 2 2 1 1 2 2 3 4 4 4 3 2 1 1 2 2 2 2 2 3 3 3 4 4 4
2 3 3 3 3 2 3 3 4 4 4 3 3 3 2 2 2 2 2 2 2 2 2 2 2 2 3 4 4 4 3 3 2 2 2 3 3 2 2 3 4 4 4 4 4
2 2 3 4 3 3 3 3 4 4 4 3 3 3 2 2 1 2 2 2 2 2 2 2 3 3 3 4 4 4 3 3 3 2 1 2 2 2 2 3 3 4 4 4 4
2 3 4 4 3 3 3 3 4 4 4 3 3 3 2 2 1 1 1 2 2 3 3 3 4 3 3 3 3 3 3 3 3 2 1 2 2 2 2 3 3 3 4 4 5
3 4 4 4 3 3 4 3 3 3 4 4 3 3 3 2 2 2 1 1 2 2 3 3 3 3 3 3 3 3 3 3 3 3 2 2 2 3 3 3 3 3 4 4 5
5 4 4 4 3 3 4 3 3 3 4 4 4 4 3 3 2 2 2 2 2 2 3 3 3 2 3 3 3 3 3 3 3 3 3 3 3 3 3 3 3 4 4 5 5
6 5 5 4 3 3 3 3 3 4 4 4 4 4 3 3 2 2 2 2 2 2 3 3 2 2 2 2 3 3 3 3 3 3 3 3 4 4 3 3 4 4 5 5 6
7 6 5 4 4 3 3 3 3 4 4 3 3 3 3 2 2 2 2 2 2 2 3 3 2 2 2 2 2 3 3 3 3 3 3 4 4 4 4 4 5 5 5 6 6
8 8 6 5 4 4 3 3 3 3 3 3 3 2 2 2 2 2 2 2 2 3 3 3 2 2 2 2 2 3 3 4 4 4 4 4 5 4 5 5 5 5 6 6 6
10 9 7 5 4 4 3 3 3 3 3 3 2 2 2 2 2 2 2 3 3 3 3 3 2 2 2 2 3 3 3 4 4 4 4 5 5 5 5 5 5 6 6 6 6